Location: Cella
(44.7333°N, 10.5667°E)
Time: 18:32:37
(UTC+00:00)

Resurs 1-3 - Visible Passes

Search period start: 22 June 2021 00:00
Search period end: 02 July 2021 00:00
Orbit: 630 x 631 km, 97.9° (Epoch: 21 June)

Date Brightness Start Highest point End Pass type
(mag) Time Alt. Az. Time Alt. Az. Time Alt. Az.
22 Jun 6.4 20:59:07 10° WSW 21:00:28 11° W 21:01:48 10° WNW visible
23 Jun 4.0 19:39:56 10° S 19:44:17 67° WSW 19:48:41 10° NNW visible
24 Jun 4.8 20:00:54 10° SSW 20:05:02 40° W 20:09:11 10° NNW visible
25 Jun 5.6 20:22:13 10° SSW 20:25:50 25° W 20:29:28 10° NW visible
26 Jun 6.2 20:44:03 10° SW 20:46:42 16° W 20:49:21 10° NW visible
28 Jun 4.3 19:47:04 10° S 19:51:22 56° W 19:55:43 10° NNW visible
29 Jun 5.1 20:08:09 10° SSW 20:12:08 34° W 20:16:10 10° NNW visible
30 Jun 5.9 20:29:37 10° SW 20:32:58 21° W 20:36:20 10° NW visible
01 Jul 6.3 20:51:46 10° WSW 20:53:51 13° W 20:55:56 10° WNW visible
